Total_Precipitation_Accumulation
0.00 0.00 0.00 0.00 0.01 0.01 0.01 0.01 0.02 0.02 0.01 0.00 0.00 0.00 0.00 0.00 0.00 0.00 0.00 0.01 0.02 0.02 0.02 0.02 0.02 0.03 0.03 0.04 0.05 0.06 0.06 0.06 0.07 0.08 0.12 0.19 0.26 0.31
0.01 0.01 0.02 0.01 0.02 0.02 0.02 0.03 0.03 0.04 0.03 0.01 0.00 0.00 0.00 0.00 0.00 0.01 0.01 0.02 0.02 0.03 0.03 0.04 0.04 0.04 0.04 0.05 0.06 0.07 0.08 0.08 0.08 0.09 0.10 0.12 0.17 0.25
0.03 0.03 0.03 0.04 0.04 0.04 0.04 0.04 0.03 0.03 0.04 0.02 0.01 0.01 0.02 0.03 0.03 0.04 0.04 0.06 0.06 0.07 0.08 0.08 0.07 0.07 0.07 0.09 0.10 0.11 0.12 0.11 0.11 0.11 0.11 0.12 0.13 0.16
0.03 0.04 0.04 0.04 0.05 0.05 0.04 0.04 0.04 0.05 0.06 0.05 0.03 0.02 0.03 0.04 0.06 0.08 0.06 0.05 0.07 0.07 0.10 0.10 0.10 0.11 0.11 0.10 0.10 0.09 0.09 0.09 0.10 0.11 0.12 0.14 0.16 0.17
0.02 0.02 0.02 0.02 0.03 0.04 0.04 0.04 0.04 0.04 0.07 0.09 0.07 0.06 0.05 0.06 0.11 0.11 0.10 0.12 0.10 0.11 0.10 0.10 0.09 0.08 0.07 0.07 0.06 0.06 0.05 0.05 0.05 0.06 0.08 0.10 0.12 0.14
0.01 0.01 0.01 0.02 0.04 0.05 0.05 0.05 0.06 0.08 0.10 0.13 0.13 0.10 0.08 0.07 0.13 0.14 0.12 0.12 0.12 0.09 0.09 0.08 0.07 0.05 0.04 0.04 0.04 0.04 0.04 0.03 0.04 0.04 0.04 0.05 0.05 0.06
0.01 0.01 0.01 0.02 0.04 0.05 0.05 0.07 0.11 0.15 0.16 0.18 0.16 0.12 0.09 0.10 0.13 0.15 0.14 0.10 0.07 0.06 0.10 0.10 0.11 0.10 0.09 0.09 0.07 0.06 0.04 0.03 0.03 0.03 0.03 0.04 0.04 0.04
0.01 0.02 0.02 0.02 0.02 0.02 0.05 0.10 0.16 0.19 0.19 0.20 0.18 0.17 0.12 0.13 0.15 0.17 0.18 0.18 0.14 0.10 0.14 0.11 0.12 0.12 0.12 0.15 0.15 0.09 0.06 0.05 0.04 0.03 0.02 0.02 0.02 0.03
0.03 0.03 0.02 0.01 0.02 0.04 0.05 0.07 0.07 0.08 0.14 0.22 0.23 0.20 0.19 0.19 0.24 0.24 0.25 0.26 0.21 0.16 0.23 0.18 0.12 0.13 0.13 0.14 0.14 0.11 0.09 0.07 0.05 0.04 0.02 0.02 0.02 0.02
0.03 0.03 0.03 0.03 0.04 0.05 0.04 0.03 0.03 0.05 0.08 0.12 0.19 0.19 0.20 0.21 0.25 0.28 0.29 0.28 0.21 0.18 0.28 0.28 0.15 0.13 0.12 0.17 0.20 0.15 0.11 0.10 0.08 0.06 0.04 0.03 0.03 0.03
0.02 0.02 0.03 0.05 0.06 0.07 0.05 0.05 0.05 0.05 0.05 0.08 0.14 0.21 0.23 0.26 0.28 0.30 0.37 0.40 0.30 0.17 0.25 0.33 0.23 0.17 0.15 0.19 0.21 0.18 0.14 0.12 0.09 0.07 0.06 0.06 0.06 0.05
0.01 0.02 0.03 0.06 0.05 0.05 0.04 0.07 0.11 0.09 0.10 0.15 0.23 0.28 0.31 0.39 0.40 0.38 0.43 0.44 0.37 0.32 0.29 0.35 0.31 0.28 0.25 0.18 0.18 0.19 0.17 0.16 0.13 0.11 0.09 0.09 0.11 0.09
0.02 0.03 0.06 0.07 0.05 0.04 0.06 0.10 0.14 0.14 0.19 0.27 0.28 0.28 0.29 0.33 0.34 0.32 0.34 0.37 0.41 0.45 0.38 0.38 0.36 0.35 0.35 0.23 0.15 0.16 0.18 0.21 0.22 0.23 0.22 0.19 0.15 0.13
0.04 0.06 0.08 0.08 0.06 0.09 0.10 0.13 0.15 0.21 0.28 0.31 0.30 0.28 0.26 0.26 0.27 0.26 0.26 0.29 0.34 0.39 0.35 0.34 0.39 0.36 0.31 0.23 0.19 0.17 0.21 0.29 0.38 0.44 0.40 0.36 0.25 0.21
0.05 0.08 0.10 0.11 0.13 0.17 0.20 0.21 0.24 0.30 0.31 0.31 0.30 0.29 0.25 0.21 0.19 0.18 0.21 0.26 0.32 0.32 0.28 0.25 0.29 0.28 0.26 0.25 0.27 0.27 0.26 0.30 0.39 0.49 0.51 0.47 0.37 0.26
0.04 0.08 0.15 0.21 0.24 0.28 0.30 0.33 0.34 0.32 0.29 0.28 0.27 0.23 0.18 0.14 0.13 0.15 0.20 0.23 0.27 0.28 0.24 0.21 0.22 0.23 0.27 0.26 0.27 0.30 0.29 0.37 0.43 0.49 0.55 0.58 0.51 0.36
0.03 0.07 0.14 0.18 0.22 0.24 0.26 0.29 0.31 0.29 0.25 0.23 0.21 0.19 0.15 0.13 0.13 0.14 0.17 0.18 0.21 0.25 0.24 0.21 0.21 0.19 0.20 0.21 0.27 0.29 0.28 0.36 0.47 0.53 0.56 0.67 0.70 0.54
0.06 0.11 0.15 0.18 0.23 0.23 0.23 0.26 0.28 0.27 0.24 0.21 0.20 0.18 0.16 0.16 0.18 0.18 0.17 0.18 0.22 0.23 0.22 0.20 0.17 0.13 0.12 0.17 0.31 0.36 0.33 0.45 0.53 0.50 0.45 0.58 0.79 0.74
0.12 0.16 0.18 0.21 0.24 0.22 0.22 0.25 0.28 0.27 0.24 0.21 0.19 0.17 0.17 0.16 0.15 0.16 0.16 0.16 0.16 0.15 0.15 0.14 0.13 0.14 0.14 0.21 0.35 0.55 0.54 0.51 0.48 0.44 0.44 0.52 0.75 0.81
0.18 0.19 0.19 0.22 0.25 0.25 0.22 0.22 0.22 0.21 0.19 0.19 0.18 0.17 0.15 0.14 0.13 0.12 0.11 0.10 0.11 0.10 0.10 0.11 0.13 0.15 0.17 0.23 0.48 0.67 0.68 0.50 0.41 0.47 0.55 0.57 0.71 0.76
0.18 0.19 0.21 0.20 0.21 0.23 0.22 0.20 0.17 0.16 0.14 0.14 0.15 0.15 0.15 0.13 0.10 0.09 0.08 0.07 0.08 0.09 0.10 0.12 0.16 0.16 0.12 0.11 0.28 0.52 0.62 0.72 0.63 0.59 0.62 0.56 0.47 0.37
0.17 0.19 0.18 0.17 0.19 0.18 0.15 0.14 0.14 0.13 0.11 0.11 0.11 0.11 0.11 0.10 0.09 0.08 0.06 0.06 0.05 0.05 0.07 0.09 0.10 0.10 0.09 0.10 0.23 0.41 0.47 0.47 0.49 0.55 0.58 0.43 0.27 0.27
0.18 0.18 0.16 0.15 0.15 0.14 0.12 0.09 0.08 0.09 0.09 0.11 0.10 0.08 0.07 0.05 0.05 0.03 0.03 0.02 0.02 0.02 0.02 0.03 0.04 0.04 0.04 0.06 0.10 0.17 0.19 0.17 0.12 0.16 0.33 0.44 0.39 0.42